Flag for Afghanistan Weather past 2 weeks in Mazari Sharif, Afghanistan

Now
73 °F

Clear.


Feels Like: 77 °F
Forecast: 83 / 106 °F
Wind: No wind

Location: Termez Airport

Current Time: Aug 4, 2015 at 6:00:16 AM

Latest Report: Aug 4, 2015 at 5:00 AM


Visibility: 10 mi

Pressure: 29.65 "Hg

Humidity: 47%

Dew point: 52 °F

Location of Mazari SharifLocation

Historic Weather in Mazari Sharif — Graph

°F

Mazari Sharif temperature yesterday

Maximum temperature yesterday: 104 °F (at 1:30 PM)
Minimum temperature yesterday: 72 °F (at 4:30 AM)
Average temperature yesterday: 91 °F

Past Weeks' High & Low Weather Summary

 TemperatureHumidityPressure
High104 °F (Jul 20, 2:00 PM)69% (Aug 1, 6:30 AM)29.86 "Hg (Aug 1, 6:30 AM)
Low72 °F (Jul 31, 4:00 AM)10% (Aug 1, 5:00 PM)29.47 "Hg (Jul 20, 5:00 PM)
Average88 °F30%29.65 "Hg
* Reported Jul 20 4:30 AM — Aug 4 4:30 AM, Mazari Sharif, Weather by CustomWeather, © 2015

Note: Actual official high and low records may vary slightly from our data, if they occured in-between our weather recording intervals... More about our weather records

Advertising

Mazari Sharif weather history for previous 24 hours

 ConditionsComfort  
Time TempWeatherWind HumidityBarometerVisibility
4:30 AM
Tue, Aug 4
75 °FClear.2 mph41%29.62 "Hg10 mi
4:00 AM75 °FClear.3 mph41%29.62 "Hg10 mi
3:30 AM77 °FClear.5 mph42%29.62 "Hg10 mi
3:00 AM77 °FClear.6 mph44%29.62 "Hg10 mi
2:30 AM75 °FClear.6 mph57%29.62 "Hg10 mi
1:30 AM81 °FClear.3 mph39%29.62 "Hg10 mi
12:30 AM79 °FClear.2 mph45%29.62 "Hg10 mi
11:30 PM
Mon, Aug 3
79 °FClear.6 mph48%29.62 "Hg10 mi
11:00 PM81 °FClear.8 mph42%29.62 "Hg10 mi
10:30 PM81 °FClear.8 mph45%29.62 "Hg10 mi
10:00 PM82 °FClear.7 mph40%29.62 "Hg10 mi
9:30 PM84 °FClear.2 mph31%29.62 "Hg10 mi
9:00 PM88 °FClear.7 mph24%29.59 "Hg10 mi
8:30 PM88 °FClear.8 mph24%29.59 "Hg10 mi
8:00 PM93 °FClear.7 mph20%29.59 "Hg10 mi
7:30 PM91 °FPassing clouds.6 mph24%29.62 "HgN/A
7:00 PM95 °FPassing clouds.2 mph22%29.59 "HgN/A
6:30 PM99 °FPassing clouds.3 mph21%29.59 "HgN/A
6:00 PM102 °FSunny.2 mph12%29.59 "Hg10 mi
5:30 PM100 °FSunny.5 mph18%29.59 "Hg10 mi
5:00 PM102 °FSunny.6 mph14%29.59 "Hg10 mi
4:30 PM104 °FSunny.7 mph13%29.62 "Hg10 mi
4:00 PM104 °FSunny.7 mph12%29.62 "Hg10 mi
3:30 PM104 °FPassing clouds.7 mph15%29.62 "HgN/A
3:00 PM104 °FPassing clouds.6 mph13%29.62 "HgN/A
2:30 PM102 °FPassing clouds.6 mph13%29.62 "HgN/A
2:00 PM104 °FPassing clouds.6 mph12%29.65 "HgN/A
1:30 PM104 °FPassing clouds.6 mph12%29.65 "HgN/A
1:00 PM102 °FPassing clouds.7 mph14%29.65 "HgN/A
12:30 PM102 °FPassing clouds.7 mph13%29.65 "HgN/A
12:00 PM100 °FSunny.8 mph15%29.68 "Hg10 mi
11:30 AM99 °FSunny.8 mph22%29.68 "Hg10 mi
11:00 AM99 °FSunny.9 mph21%29.68 "Hg10 mi
10:30 AM97 °FPassing clouds.6 mph20%29.68 "HgN/A
10:00 AM93 °FPassing clouds.5 mph23%29.68 "HgN/A
9:30 AM91 °FPassing clouds.5 mph28%29.68 "HgN/A
9:00 AM88 °FPassing clouds.5 mph29%29.68 "HgN/A
8:30 AM86 °FPassing clouds.3 mph29%29.68 "HgN/A
8:00 AM86 °FPassing clouds.3 mph27%29.68 "HgN/A
7:30 AM84 °FSunny.No wind29%29.68 "Hg10 mi
7:00 AM79 °FSunny.No wind45%29.68 "Hg10 mi
6:30 AM73 °FSunny.5 mph53%29.68 "Hg10 mi
Weather by CustomWeather, © 2015

See weather overviewHow to use our weather pages